www.pogodaiklimat.ru
ПОГОДА в Редмонде
Время
и дата
10:56 26.05
11:56 26.05
12:56 26.05
13:56 26.05
14:56 26.05
15:56 26.05
16:56 26.05
17:21 26.05
17:56 26.05
18:56 26.05
19:56 26.05
20:56 26.05
21:56 26.05
22:56 26.05
23:56 26.05
00:56 27.05
01:56 27.05
02:56 27.05
03:56 27.05
04:56 27.05
05:56 27.05
06:56 27.05
07:56 27.05
08:56 27.05
09:56 27.05
10:56 27.05
11:56 27.05
12:56 27.05
13:56 27.05
14:56 27.05
15:56 27.05
16:56 27.05
17:56 27.05
18:56 27.05
19:56 27.05
20:56 27.05
21:56 27.05
22:56 27.05
23:56 27.05
00:56 28.05
01:56 28.05
02:56 28.05
03:56 28.05
04:56 28.05
05:56 28.05
06:56 28.05
07:56 28.05
08:56 28.05
Ветер
(напр.,м/с)
Видим. Явления Облачность Т
(С)
Тd
(С)
f
(%)
Тe
(С)
Тes
(С)
Комфортность P
(гПа)
Po
(гПа)
Тmin
(С)
Tmax
(С)
R
(мм)
R24
(мм)
S
(см)
нст 2 16 км ясно +17.8 +0.6 31 +18 +34 опасность
простуды
1018.2 910.2
штиль 0 16 км ясно +19.4 +0.6 28 +19 +43 опасность
простуды
1017.8 909.9
нст 2 16 км ясно +21.7 +1.7 27 +21 +40 комфорт 1017.3 909.6
штиль 0 16 км ясно +22.2 +1.7 26 +22 +46 комфорт 1016.9 909.3
ЮЗ 2 16 км ясно +23.3 +2.2 25 +23 +38 комфорт 1016.5 909.0
С 6 16 км ясно +22.2 +2.2 27 +22 +27 комфорт 1016.5 908.7 +16.1 +24.4
СЗ 5
{8}
16 км 2/0 2400 m
[Ac]
+23.9 +2.2 24 +23 +27 комфорт 1016.2 908.7
С 5
{9}
16 км ясно +23.9 +2.8 25 +23 +25 комфорт 908.7
С 5
{10}
16 км ясно +22.2 +2.8 28 +22 +24 комфорт 1016.0 908.7
С 5 16 км ясно +21.1 +3.3 31 +21 +22 комфорт 1016.3 909.3
С 6 16 км ясно +18.3 +4.4 40 +18 +18 1017.0 909.9
СЗ 5 16 км ясно +15.6 +5.0 49 +15 +15 1018.0 910.8
С 2 16 км ясно +13.9 +5.0 55 +14 +14 1018.1 911.1 +13.9 +23.9
СЗ 4 16 км ясно +13.3 +5.0 57 +12 +12 1018.4 911.1
СЗ 3 16 км ясно +12.2 +5.6 64 +11 +11 1018.5 911.4
Ю 2 16 км ясно +8.3 +4.4 76 +7 +7 1018.7 911.4
Ю 2 16 км ясно +6.7 +3.3 79 +5 +5 1018.9 911.4
Ю 2 16 км ясно +6.1 +3.3 82 +4 +4 1018.8 911.4
Ю 2 16 км ясно +6.1 +3.3 82 +4 +4 1018.9 911.4 +5.6 +13.9
Ю 2 16 км ясно +5.0 +2.8 86 +2 +2 1019.2 911.7
ЮВ 2 16 км ясно +8.9 +4.4 73 +7 +7 1019.4 912.0
штиль 0 16 км ясно +12.8 +5.0 59 +13 +14 1019.3 912.3
Ю 2 16 км ясно +15.0 +5.0 51 +15 +19 1019.3 912.3
В 2 16 км ясно +18.3 +5.0 41 +19 +26 1018.8 911.7
штиль 0 16 км ясно +20.0 +5.0 37 +20 +36 опасность
простуды
1018.1 911.4 +4.4 +20.6
СВ 2 16 км ясно +22.8 +5.0 31 +23 +38 комфорт 1017.2 910.5
нст 2 16 км ясно +24.4 +3.9 26 +24 +42 комфорт 1016.4 909.9
СЗ 4 16 км ясно +26.1 +2.8 22 +25 +38 комфорт 1015.7 909.3
С 5
{9}
16 км ясно +27.8 +3.9 22 +26 +36 жарко 1015.0 908.4
СЗ 7
{10}
16 км ясно +28.3 +2.8 19 +26 +31 жарко 1014.4 908.0
С 5
{9}
16 км ясно +27.2 +3.3 21 +26 +32 жарко 1014.2 907.7 +20.0 +28.3
С 6
{8}
16 км 5/2 1320 m
[Ac]
+26.7 +3.9 23 +25 +27 комфорт 1013.9 907.4
С 6
{11}
16 км 8/0 2100 m
[Ac]
+25.6 +3.9 25 +25 +26 комфорт 1014.0 907.7
С 6
{10}
16 км 2/0 3300 m
[Ac]
+22.2 +5.6 34 +23 +23 комфорт 1014.5 908.0
СЗ 5 16 км 2/0 3300 m
[Ac]
+19.4 +6.1 42 +20 +20 1015.2 908.7
СЗ 4 16 км ясно +17.8 +6.1 46 +18 +18 1015.8 909.3
штиль 0 16 км ясно +15.6 +5.6 51 +16 +16 1015.9 909.3 +15.6 +27.8
СЗ 4 16 км ясно +16.1 +6.1 51 +15 +15 1015.2 909.0
СЗ 3 16 км ясно +15.0 +6.7 58 +14 +14 1014.8 908.7
Ю 3 16 км ясно +10.0 +5.0 71 +8 +8 1014.8 908.4
Ю 2 16 км ясно +8.3 +4.4 76 +7 +7 1014.8 908.7
ЮЗ 2 16 км 5/0 3000 m
[Ac]
+8.3 +4.4 76 +7 +7 1014.5 908.4
Ю 2 16 км 8/0 2700 m
[Ac]
+8.9 +5.0 77 +7 +7 1014.8 908.4 +7.8 +16.1
штиль 0 16 км 2/0 3000 m
[Ac]
+8.9 +5.0 77 +8 +8 1015.0 908.7
штиль 0 16 км ясно +12.2 +6.7 69 +12 +12 1015.0 909.0
штиль 0 16 км ясно +14.4 +7.2 62 +14 +16 1015.5 909.0
СВ 2 16 км ясно +16.7 +6.7 52 +17 +21 1015.5 909.0
СЗ 3 16 км ясно +16.7 +6.7 52 +17 +23 1015.5 909.0
Местоположение метеостанции Roberts Field Airport: широта 44.2542 долгота -121.1497 высота над уровнем моря 938 м.
В архиве по умолчанию представлена погода в Редмонде за последние 1-2 суток. Обновление информации о фактической погоде в базе происходит ежечасно! Архивные данные за месяц целиком и за предыдущие месяцы Вы можете получить, выбрав интересующий диапазон дат из раскрывающегося списка и нажав кнопку "Ввод!".
Внимание! Архив погоды МЕТАР в базе сайта по станциям, не включенным в климатический монитор, хранится не более 60 дней. Нет смысла пытаться выбрать более раннюю дату.
*Определитесь, кто Вы:
Внимание! Время в таблицах - местное (без учета летнего времени). Для получения всемирного времени необходимо вычесть поправку, которая равна -8 ч.
Смотрите также архив погоды в соседних городах и на ближайших метеорологических станциях:
Партнеры нашего сайта:      
Пояснения к столбцам:
  • Ветер - указаны скорость ветра в м/с - средняя за 10 мин, порывы в срок и между сроками (в фигурных скобках) и направление, откуда дует ветер: С - северный,
  • СВ - северо-восточный, В - восточный, ЮВ - юго-восточный, Ю - южный, ЮЗ - юго-западный, З - западный, СЗ - северо-западный.
  • Видимость - горизонтальная дальность видимости в метрах или километрах. При видимости от 1 до 10 км при отсутствии осадков обычно наблюдается дымка, при ухудшении видимости до 1 км и менее - туман. В сухую погоду видимость может ухудшаться дымом, пылью или мглою.
  • Явления - указаны атмосферные явления, наблюдавшиеся в срок или в последний час перед сроком; фигурными скобками обозначены явления, наблюдавшиеся между сроками (за 1-3 часа до срока); квадратными скобками обозначены град или гололедные отложения с указанием их диаметра в мм.
  • Облачность - указаны через наклонную черту общая и нижняя облачность в баллах и высота нижней границы облаков в метрах; квадратными скобками обозначены формы облаков: Ci - перистые, Cs - перисто-слоистые, Cc - перисто-кучевые, Ac - высококучевые, As - высокослоистые, Sc - слоисто-кучевые, Ns - слоисто-дождевые, Cu - кучевые, Cb - кучево-дождевые. Подробнее классификацию облаков см. в Атласе облаков (PDF).
  • T - Температура воздуха - температура, измеренная на высоте 2 м над землей.
  • Td - Температура точки росы - температура, при понижении до которой содержащийся в воздухе водяной пар достигнет насыщения.
  • f - Относительная влажность воздуха - влажноcть воздуха, измеренная на высоте 2 м над землей.
  • Te - Эффективная температура - температура, которую ощущает одетый по сезону человек в тени. Характеристика душности погоды. При расчете учитывается влияние влажности воздуха и скорости ветра на теплоощущения человека.
  • Tes - Эффективная температура на солнце - температура, которую ощущает человек, с поправкой на солнечный нагрев. Характеристика знойности погоды. Зависит от высоты солнца над горизонтом, облачности и скорости ветра. Ночью, в пасмурную погоду, а также при ветре 12 м/с и более поправка равна нулю.
  • P - Атмосферное давление - приведенное к уровню моря атмосферное давление.
  • Po - Атмосферное давление - измеренное на уровне метеостанции атмосферное давление.
  • Tmin - Минимальная температура - минимум температуры воздуха на высоте 2 м над землей.
  • Tmax - Максимальная температура - максимум температуры воздуха на высоте 2 м над землей.
  • R - Количество осадков - Количество выпавших осадков за период времени, мм. При наведении курсора мыши на число - период времени, за который выпало указанное количество осадков.
  • R24 - Количество осадков - Количество выпавших осадков за 24 часа, мм.
  • S - Снежный покров - Высота снежного покрова, см. При наведении курсора мыши на число - состояние снежного покрова и степень покрытия местности в баллах.